OM5AST-13 Weather Reports


Display with metric or nautical units.
time (UTC)temp
F
wind
direction
speed
MPH
gust
MPH
rain 1hr
in
rain 24hr
in
rain mn
in
humidity
%
barometer
mb
20260505204355 64 0 0.0 0.0 0.00 0.00 0.00 53
20260505202355 65 0 0.0 0.0 0.00 0.00 0.00 52
20260505200355 66 0 0.0 0.0 0.00 0.00 0.00 52
20260505194355 66 0 0.0 0.0 0.00 0.00 0.00 52
20260505192355 66 0 0.0 0.0 0.00 0.00 0.00 51
20260505190355 67 0 0.0 0.0 0.00 0.00 0.00 50
20260505184355 68 0 0.0 0.0 0.00 0.00 0.00 48
20260505182355 68 0 0.0 0.0 0.00 0.00 0.00 46
20260505180355 70 0 0.0 0.0 0.00 0.00 0.00 43
20260505174355 73 0 0.0 0.0 0.00 0.00 0.00 39
20260505172355 71 0 0.0 0.0 0.00 0.00 0.00 40
20260505170355 72 0 0.0 0.0 0.00 0.00 0.00 37
20260505164355 73 0 0.0 0.0 0.00 0.00 0.00 36
20260505162355 76 0 0.0 0.0 0.00 0.00 0.00 35
20260505160355 77 0 0.0 0.0 0.00 0.00 0.00 34
20260505152355 80 0 0.0 0.0 0.00 0.00 0.00 32
20260505150355 81 0 0.0 0.0 0.00 0.00 0.00 31
20260505140355 83 0 0.0 0.0 0.00 0.00 0.00 29
20260505124355 81 0 0.0 0.0 0.00 0.00 0.00 29
20260505122355 80 0 0.0 0.0 0.00 0.00 0.00 35
20260505120355 78 0 0.0 0.0 0.00 0.00 0.00 34
20260505114355 77 0 0.0 0.0 0.00 0.00 0.00 35
20260505112355 77 0 0.0 0.0 0.00 0.00 0.00 34
20260505110355 76 0 0.0 0.0 0.00 0.00 0.00 36
20260505100355 75 0 0.0 0.0 0.00 0.00 0.00 38
20260505094355 73 0 0.0 0.0 0.00 0.00 0.00 40
20260505092355 71 0 0.0 0.0 0.00 0.00 0.00 43
20260505090355 71 0 0.0 0.0 0.00 0.00 0.00 43
20260505084355 71 0 0.0 0.0 0.00 0.00 0.00 43
20260505082355 70 0 0.0 0.0 0.00 0.00 0.00 44
20260505080355 69 0 0.0 0.0 0.00 0.00 0.00 45
20260505074355 68 0 0.0 0.0 0.00 0.00 0.00 47
20260505072355 66 0 0.0 0.0 0.00 0.00 0.00 48
20260505070355 65 0 0.0 0.0 0.00 0.00 0.00 51
20260505064355 63 0 0.0 0.0 0.00 0.00 0.00 51
20260505062356 61 0 0.0 0.0 0.00 0.00 0.00 53
20260505060356 60 0 0.0 0.0 0.00 0.00 0.00 52
20260505054355 59 0 0.0 0.0 0.00 0.00 0.00 52
20260505052355 59 0 0.0 0.0 0.00 0.00 0.00 51
20260505050355 58 0 0.0 0.0 0.00 0.00 0.00 51
20260505040355 57 0 0.0 0.0 0.00 0.00 0.00 52
20260505034355 56 0 0.0 0.0 0.00 0.00 0.00 52
20260505032355 57 0 0.0 0.0 0.00 0.00 0.00 50
20260505030355 57 0 0.0 0.0 0.00 0.00 0.00 49
20260505024355 57 0 0.0 0.0 0.00 0.00 0.00 48
20260505022355 58 0 0.0 0.0 0.00 0.00 0.00 49
20260505020355 58 0 0.0 0.0 0.00 0.00 0.00 49
20260505014355 58 0 0.0 0.0 0.00 0.00 0.00 48
20260505012355 59 0 0.0 0.0 0.00 0.00 0.00 48
20260505010355 59 0 0.0 0.0 0.00 0.00 0.00 48
20260505004355 59 0 0.0 0.0 0.00 0.00 0.00 49
20260505002355 60 0 0.0 0.0 0.00 0.00 0.00 49
20260505000355 60 0 0.0 0.0 0.00 0.00 0.00 49
20260504234355 61 0 0.0 0.0 0.00 0.00 0.00 48
20260504232355 61 0 0.0 0.0 0.00 0.00 0.00 47
20260504230355 62 0 0.0 0.0 0.00 0.00 0.00 46
20260504224355 63 0 0.0 0.0 0.00 0.00 0.00 46
20260504222355 63 0 0.0 0.0 0.00 0.00 0.00 45
20260504220355 64 0 0.0 0.0 0.00 0.00 0.00 44
20260504214355 65 0 0.0 0.0 0.00 0.00 0.00 43
20260504212355 65 0 0.0 0.0 0.00 0.00 0.00 42
20260504210355 66 0 0.0 0.0 0.00 0.00 0.00 41